{"data":{"norad_id":68221,"epoch":"2026-05-25T03:03:07.603776Z","epoch_age_seconds":63939,"freshness":"FRESH","line1":"1 68221U 26053Q   26145.12717134  .00014893  00000+0  46259-3 0  9992","line2":"2 68221  97.2892  20.5969 0001262  94.9588 265.1799 15.33455193 11935","mean_motion":15.33455193,"eccentricity":0.0001262,"inclination_deg":97.2892,"raan_deg":20.5969,"arg_perigee_deg":94.9588,"mean_anomaly_deg":265.1799,"bstar":0.00046259,"rev_number":1193,"period_min":93.90558045474,"perigee_km":464.64917883876,"apogee_km":466.37651606025,"semimajor_km":6843.6498474495,"source":"CELESTRAK","updated_at":"2026-05-25T13:38:21.880413Z"}}